sat.trackr.live / text

‹ back to catalog

STARLINK-33545

NORAD 62101 · 2024-220P

PAYLOAD ACTIVE UNKNOWN

§ Identity

Operator
Country
US
Launch date
2024-11-25
Launch site
AFETR
Launch vehicle
Mass (kg)
RCS (m²)

Purposes: comms

External: N2YO · Heavens-Above · Gunter

§ Orbital elements

Epoch: 2026-05-24T23:49:16.737312Z

Period
94.27 min
Inclination
42.9953°
Eccentricity
0.0001382
Mean motion
15.27590477 rev/d
Perigee alt
482.1 km
Apogee alt
484.0 km
Semi-major
6,861.2 km
B*
4.7246e-4
RAAN
134.3761°
Arg perigee
309.0092°
Mean anomaly
51.0636°
Rev number
8,469

§ Raw data

STARLINK-335451 62101U 24220P   26144.99255483  .00012766  00000+0  47246-3 0  99992 62101  42.9953 134.3761 0001382 309.0092  51.0636 15.27590477 84691

JSON: /api/v1/satellites/62101 · /tle

For live sub-satellite position, see the globe view (requires WebGL).

§ Visibility from observer

Set your observer location to see the next 7 days of passes ≥ 10°. The values pass through the URL so the page stays shareable.

No JS? Fill the form by hand. The geolocation button needs JavaScript.